Location: El Bakhil
(32.7726°N, 5.5387°W)
Time: 19:18:03
(UTC+00:00)

Meteor 1-14 Rocket - Pass Details

Date: 03 March 2021
Orbit: 834 x 918 km, 81.3° (Epoch: 10 April)

Event Time Altitude Azimuth Distance (km) Brightness Sun altitude
Rises 19:16:49 0° 187° (S) 3,412 7.4 -12.5°
Reaches altitude 10° 19:19:14 10° 187° (S) 2,469 6.7 -13.0°
Maximum altitude 19:24:50 89° 275° (W) 846 4.2 -14.2°
Drops below altitude 10° 19:30:23 10° 8° (N) 2,451 6.6 -15.4°
Sets 19:32:47 0° 8° (N) 3,387 7.3 -15.9°
